PUA2011 SGAS-SUMU

Flight info

Callsign PUA2011
Flight time 1h 20m
Altitude 38000
Route ITAPE ASATI UP526 GEMSU/N0419F370 UP526 MONSA
Aircraft A20N/M-SDE2E3FGHIJ1RWXY/LB1

Departure

Time 2026-05-08 01:01
Airport Silvio Pettirossi International Airport (SGAS)

Arrival

Time 2026-05-08 02:21
Airport Carrasco General Cesáreo L. Berisso International Airport (SUMU)
Time Latitude Longitude Altitude Speed Heading
2026-05-08 00:37 -25.24233 -57.51548 278 ft 0 kts 102°
2026-05-08 00:47 -25.24233 -57.51552 278 ft 3 kts 103°
2026-05-08 00:48 -25.24227 -57.51577 284 ft 3 kts 105°
2026-05-08 00:48 -25.24220 -57.51602 283 ft 3 kts 105°
2026-05-08 00:48 -25.24216 -57.51628 282 ft 3 kts 86°
2026-05-08 00:48 -25.24220 -57.51644 286 ft 2 kts 13°
2026-05-08 00:49 -25.24221 -57.51645 286 ft 0 kts 12°
2026-05-08 00:52 -25.24220 -57.51644 286 ft 1 kts 12°
2026-05-08 00:52 -25.24200 -57.51640 285 ft 4 kts 12°
2026-05-08 00:52 -25.24159 -57.51629 280 ft 8 kts 12°
2026-05-08 00:52 -25.24097 -57.51614 278 ft 11 kts 13°
2026-05-08 00:53 -25.24022 -57.51625 278 ft 12 kts 328°
2026-05-08 00:53 -25.23944 -57.51675 278 ft 14 kts 344°
2026-05-08 00:53 -25.23841 -57.51659 278 ft 16 kts 12°
2026-05-08 00:53 -25.23730 -57.51631 280 ft 17 kts 13°
2026-05-08 00:54 -25.23614 -57.51603 278 ft 17 kts 13°
2026-05-08 00:54 -25.23499 -57.51574 277 ft 17 kts 12°
2026-05-08 00:54 -25.23380 -57.51546 277 ft 17 kts 11°
2026-05-08 00:54 -25.23262 -57.51517 277 ft 18 kts 12°
2026-05-08 00:55 -25.23139 -57.51487 277 ft 19 kts 12°
2026-05-08 00:55 -25.23018 -57.51457 277 ft 17 kts 13°
2026-05-08 00:55 -25.22941 -57.51438 277 ft 3 kts 12°
2026-05-08 00:55 -25.22921 -57.51434 277 ft 3 kts 12°
2026-05-08 00:56 -25.22897 -57.51428 279 ft 4 kts 12°
2026-05-08 00:56 -25.22867 -57.51421 277 ft 5 kts 12°
2026-05-08 00:56 -25.22830 -57.51412 277 ft 6 kts 12°
2026-05-08 00:56 -25.22786 -57.51401 276 ft 7 kts 13°
2026-05-08 00:57 -25.22735 -57.51388 276 ft 8 kts 13°
2026-05-08 00:57 -25.22676 -57.51373 276 ft 9 kts 13°
2026-05-08 00:57 -25.22610 -57.51358 276 ft 10 kts
2026-05-08 00:57 -25.22550 -57.51396 275 ft 12 kts 295°
2026-05-08 00:58 -25.22532 -57.51475 270 ft 8 kts 282°
2026-05-08 00:58 -25.22528 -57.51520 268 ft 1 kts 265°
2026-05-08 00:58 -25.22534 -57.51543 267 ft 4 kts 248°
2026-05-08 00:58 -25.22557 -57.51563 268 ft 4 kts 198°
2026-05-08 00:59 -25.22560 -57.51564 268 ft 0 kts 195°
2026-05-08 01:00 -25.22565 -57.51565 266 ft 1 kts 195°
2026-05-08 01:00 -25.22671 -57.51597 269 ft 45 kts 192°
2026-05-08 01:00 -25.23172 -57.51713 276 ft 100 kts 192°
2026-05-08 01:00 -25.24011 -57.51916 306 ft 143 kts 192°
2026-05-08 01:01 -25.24983 -57.52164 1029 ft 146 kts 194°
2026-05-08 01:01 -25.25989 -57.52473 1836 ft 157 kts 194°
2026-05-08 01:01 -25.27074 -57.52833 2732 ft 160 kts 195°
2026-05-08 01:01 -25.28097 -57.53174 3518 ft 152 kts 196°
2026-05-08 01:02 -25.29199 -57.53446 3809 ft 173 kts 191°
2026-05-08 01:02 -25.30437 -57.53604 4278 ft 191 kts 187°
2026-05-08 01:02 -25.31898 -57.53702 4557 ft 222 kts 189°
2026-05-08 01:02 -25.33475 -57.54028 4994 ft 246 kts 197°
2026-05-08 01:03 -25.35219 -57.54361 5686 ft 267 kts 181°
2026-05-08 01:03 -25.37042 -57.53666 6425 ft 292 kts 149°
2026-05-08 01:03 -25.38626 -57.52173 7264 ft 303 kts 139°
2026-05-08 01:03 -25.40131 -57.50496 8074 ft 311 kts 136°
2026-05-08 01:04 -25.41639 -57.48757 8969 ft 315 kts 137°
2026-05-08 01:04 -25.43316 -57.47155 9734 ft 322 kts 149°
2026-05-08 01:04 -25.45321 -57.46060 10317 ft 332 kts 163°
2026-05-08 01:04 -25.47581 -57.45178 10615 ft 355 kts 166°
2026-05-08 01:05 -25.49974 -57.44357 11067 ft 369 kts 168°
2026-05-08 01:05 -25.52510 -57.43537 11860 ft 374 kts 168°
2026-05-08 01:05 -25.55062 -57.42846 12643 ft 375 kts 176°
2026-05-08 01:05 -25.57644 -57.42710 13404 ft 372 kts 189°
2026-05-08 01:06 -25.60172 -57.43126 14139 ft 369 kts 198°
2026-05-08 01:06 -25.62730 -57.43693 14982 ft 370 kts 198°
2026-05-08 01:06 -25.65266 -57.44229 15759 ft 371 kts 198°
2026-05-08 01:06 -25.67790 -57.44756 16507 ft 372 kts 198°
2026-05-08 01:07 -25.70351 -57.45291 17270 ft 373 kts 199°
2026-05-08 01:07 -25.72879 -57.45820 17996 ft 375 kts 199°
2026-05-08 01:07 -25.75444 -57.46361 18601 ft 378 kts 199°
2026-05-08 01:07 -25.78035 -57.46914 19071 ft 385 kts 199°
2026-05-08 01:08 -25.80691 -57.47480 19575 ft 390 kts 199°
2026-05-08 01:08 -25.83377 -57.48051 20076 ft 396 kts 199°
2026-05-08 01:08 -25.86111 -57.48632 20582 ft 401 kts 199°
2026-05-08 01:08 -25.88874 -57.49219 21085 ft 407 kts 199°
2026-05-08 01:09 -25.91681 -57.49817 21578 ft 413 kts 199°
2026-05-08 01:09 -25.94484 -57.50413 22062 ft 418 kts 199°
2026-05-08 01:09 -25.97366 -57.51028 22553 ft 424 kts 199°
2026-05-08 01:09 -26.00268 -57.51647 23035 ft 430 kts 199°
2026-05-08 01:10 -26.03248 -57.52282 23517 ft 435 kts 199°
2026-05-08 01:10 -26.06232 -57.52917 23951 ft 440 kts 198°
2026-05-08 01:10 -26.09273 -57.53336 24382 ft 451 kts 190°
2026-05-08 01:10 -26.12453 -57.53384 24818 ft 458 kts 187°
2026-05-08 01:11 -26.15645 -57.53405 25234 ft 462 kts 188°
2026-05-08 01:11 -26.18901 -57.53439 25637 ft 467 kts 188°
2026-05-08 01:11 -26.22151 -57.53476 26051 ft 470 kts 188°
2026-05-08 01:11 -26.25409 -57.53514 26447 ft 474 kts 188°
2026-05-08 01:12 -26.28723 -57.53550 26844 ft 478 kts 188°
2026-05-08 01:12 -26.32058 -57.53586 27235 ft 482 kts 188°
2026-05-08 01:12 -26.35432 -57.53622 27640 ft 485 kts 188°
2026-05-08 01:12 -26.38832 -57.53659 28029 ft 489 kts 188°
2026-05-08 01:13 -26.42243 -57.53695 28402 ft 492 kts 188°
2026-05-08 01:13 -26.45683 -57.53733 28773 ft 495 kts 188°
2026-05-08 01:13 -26.49140 -57.53770 29151 ft 499 kts 189°
2026-05-08 01:13 -26.52629 -57.53807 29507 ft 502 kts 189°
2026-05-08 01:14 -26.56119 -57.53844 29861 ft 505 kts 189°
2026-05-08 01:14 -26.59648 -57.53882 30178 ft 507 kts 189°
2026-05-08 01:14 -26.63167 -57.53920 30499 ft 510 kts 188°
2026-05-08 01:14 -26.66746 -57.53958 30822 ft 512 kts 188°
2026-05-08 01:15 -26.70249 -57.53995 31157 ft 514 kts 188°
2026-05-08 01:15 -26.73857 -57.54032 31564 ft 514 kts 188°
2026-05-08 01:15 -26.77521 -57.54069 31993 ft 513 kts 188°
2026-05-08 01:15 -26.81134 -57.54109 32412 ft 512 kts 188°
2026-05-08 01:16 -26.84629 -57.54149 32805 ft 512 kts 188°
2026-05-08 01:16 -26.88222 -57.54203 33195 ft 511 kts 189°
2026-05-08 01:16 -26.91764 -57.54305 33605 ft 510 kts 189°
2026-05-08 01:16 -26.95308 -57.54422 33969 ft 509 kts 189°
2026-05-08 01:17 -26.98897 -57.54539 34312 ft 508 kts 189°
2026-05-08 01:17 -27.02382 -57.54648 34636 ft 507 kts 189°
2026-05-08 01:17 -27.05898 -57.54753 34967 ft 506 kts 189°
2026-05-08 01:17 -27.09420 -57.54856 35275 ft 505 kts 189°
2026-05-08 01:18 -27.12915 -57.54959 35578 ft 504 kts 189°
2026-05-08 01:18 -27.16458 -57.55063 35873 ft 504 kts 189°
2026-05-08 01:18 -27.19967 -57.55165 36170 ft 503 kts 189°
2026-05-08 01:18 -27.22253 -57.55232 36359 ft 502 kts 189°
2026-05-08 01:19 -27.25754 -57.55333 36640 ft 501 kts 189°
2026-05-08 01:19 -27.29255 -57.55435 36906 ft 500 kts 188°
2026-05-08 01:19 -27.32727 -57.55536 37175 ft 500 kts 188°
2026-05-08 01:19 -27.36207 -57.55637 37448 ft 499 kts 188°
2026-05-08 01:20 -27.39628 -57.55737 37697 ft 498 kts 188°
2026-05-08 01:20 -27.43093 -57.55839 37892 ft 497 kts 188°
2026-05-08 01:20 -27.46570 -57.55958 37893 ft 495 kts 189°
2026-05-08 01:21 -27.53469 -57.56255 37873 ft 494 kts 189°
2026-05-08 01:21 -27.60373 -57.56551 37889 ft 495 kts 189°
2026-05-08 01:22 -27.67203 -57.56834 37888 ft 495 kts 189°
2026-05-08 01:22 -27.74081 -57.57118 37892 ft 495 kts 189°
2026-05-08 01:23 -27.80976 -57.57403 37887 ft 496 kts 189°
2026-05-08 01:23 -27.87830 -57.57687 37890 ft 496 kts 189°
2026-05-08 01:24 -27.94752 -57.57974 37889 ft 496 kts 189°
2026-05-08 01:24 -28.01663 -57.58261 37882 ft 496 kts 189°
2026-05-08 01:25 -28.08578 -57.58548 37886 ft 497 kts 190°
2026-05-08 01:25 -28.15486 -57.58836 37890 ft 497 kts 190°
2026-05-08 01:26 -28.22410 -57.59113 37893 ft 498 kts 189°
2026-05-08 01:26 -28.29372 -57.59267 37884 ft 500 kts 189°
2026-05-08 01:27 -28.36323 -57.59411 37880 ft 500 kts 189°
2026-05-08 01:27 -28.43247 -57.59569 37878 ft 501 kts 189°
2026-05-08 01:28 -28.50215 -57.59733 37876 ft 501 kts 189°
2026-05-08 01:28 -28.57210 -57.59898 37877 ft 502 kts 189°
2026-05-08 01:29 -28.64201 -57.60064 37875 ft 503 kts 189°
2026-05-08 01:29 -28.71240 -57.60230 37880 ft 505 kts 189°
2026-05-08 01:30 -28.78272 -57.60396 37880 ft 506 kts 189°
2026-05-08 01:30 -28.85282 -57.60562 37881 ft 507 kts 189°
2026-05-08 01:31 -28.92339 -57.60730 37885 ft 508 kts 189°
2026-05-08 01:31 -28.99426 -57.60898 37882 ft 509 kts 189°
2026-05-08 01:32 -29.06522 -57.61067 37884 ft 510 kts 189°
2026-05-08 01:32 -29.13619 -57.61236 37883 ft 511 kts 189°
2026-05-08 01:33 -29.20753 -57.61406 37880 ft 512 kts 189°
2026-05-08 01:33 -29.27891 -57.61575 37885 ft 512 kts 189°
2026-05-08 01:34 -29.35025 -57.61735 37882 ft 513 kts 189°
2026-05-08 01:34 -29.42150 -57.61896 37864 ft 513 kts 189°
2026-05-08 01:35 -29.49294 -57.62056 37867 ft 511 kts 189°
2026-05-08 01:35 -29.56419 -57.62220 37865 ft 511 kts 189°
2026-05-08 01:36 -29.63492 -57.62381 37859 ft 512 kts 189°
2026-05-08 01:36 -29.70652 -57.62545 37855 ft 511 kts 189°
2026-05-08 01:37 -29.77768 -57.62707 37847 ft 511 kts 189°
2026-05-08 01:37 -29.84897 -57.62870 37843 ft 510 kts 189°
2026-05-08 01:38 -29.91994 -57.63033 37841 ft 510 kts 189°
2026-05-08 01:38 -29.99048 -57.63195 37841 ft 510 kts 189°
2026-05-08 01:39 -30.06181 -57.63360 37839 ft 510 kts 189°
2026-05-08 01:39 -30.13212 -57.63522 37838 ft 509 kts 189°
2026-05-08 01:40 -30.20359 -57.63687 37829 ft 509 kts 189°
2026-05-08 01:40 -30.27597 -57.63102 37822 ft 520 kts 176°
2026-05-08 01:41 -30.34659 -57.60955 37814 ft 526 kts 167°
2026-05-08 01:41 -30.41582 -57.58487 37808 ft 526 kts 168°
2026-05-08 01:42 -30.48601 -57.55989 37804 ft 526 kts 167°
2026-05-08 01:42 -30.55596 -57.53483 37818 ft 526 kts 167°
2026-05-08 01:43 -30.62617 -57.50960 37805 ft 527 kts 167°
2026-05-08 01:43 -30.69602 -57.48447 37807 ft 527 kts 167°
2026-05-08 01:44 -30.76657 -57.45905 37801 ft 527 kts 167°
2026-05-08 01:44 -30.83661 -57.43377 37796 ft 527 kts 167°
2026-05-08 01:45 -30.90655 -57.40853 37794 ft 528 kts 167°
2026-05-08 01:45 -30.97670 -57.38318 37787 ft 528 kts 166°
2026-05-08 01:46 -31.04708 -57.35771 37786 ft 528 kts 166°
2026-05-08 01:46 -31.11735 -57.33223 37785 ft 529 kts 166°
2026-05-08 01:47 -31.18774 -57.30667 37786 ft 529 kts 166°
2026-05-08 01:47 -31.25812 -57.28107 37779 ft 529 kts 166°
2026-05-08 01:48 -31.36355 -57.24264 37774 ft 529 kts 166°
2026-05-08 01:48 -31.43346 -57.21712 37767 ft 529 kts 166°
2026-05-08 01:49 -31.50436 -57.19120 37768 ft 530 kts 166°
2026-05-08 01:49 -31.57455 -57.16548 37767 ft 530 kts 165°
2026-05-08 01:50 -31.64576 -57.13936 37765 ft 530 kts 165°
2026-05-08 01:50 -31.70408 -57.11793 37760 ft 529 kts 165°
2026-05-08 01:51 -31.77452 -57.09201 37754 ft 529 kts 165°
2026-05-08 01:51 -31.84459 -57.06578 37746 ft 530 kts 164°
2026-05-08 01:52 -31.91494 -57.03900 37741 ft 530 kts 165°
2026-05-08 01:52 -31.98493 -57.01309 37741 ft 530 kts 165°
2026-05-08 01:53 -32.05528 -56.98706 37737 ft 530 kts 165°
2026-05-08 01:53 -32.12586 -56.95931 37729 ft 531 kts 163°
2026-05-08 01:54 -32.19583 -56.93110 37728 ft 531 kts 163°
2026-05-08 01:54 -32.26554 -56.90317 37711 ft 532 kts 163°
2026-05-08 01:55 -32.33565 -56.87511 37707 ft 533 kts 162°
2026-05-08 01:55 -32.40597 -56.84693 37701 ft 534 kts 162°
2026-05-08 01:56 -32.47658 -56.81859 37693 ft 536 kts 162°
2026-05-08 01:56 -32.54749 -56.79007 37692 ft 537 kts 162°
2026-05-08 01:57 -32.61801 -56.76166 37696 ft 539 kts 162°
2026-05-08 01:57 -32.68913 -56.73297 37709 ft 541 kts 162°
2026-05-08 01:58 -32.76069 -56.70404 37701 ft 541 kts 162°
2026-05-08 01:58 -32.83166 -56.67531 37699 ft 540 kts 162°
2026-05-08 01:59 -32.90264 -56.64653 37327 ft 539 kts 162°
2026-05-08 01:59 -32.93819 -56.63209 36602 ft 543 kts 162°
2026-05-08 01:59 -32.97389 -56.61756 35584 ft 552 kts 162°
2026-05-08 02:00 -33.01090 -56.60252 34369 ft 566 kts 162°
2026-05-08 02:00 -33.04874 -56.58715 33018 ft 581 kts 161°
2026-05-08 02:00 -33.08710 -56.57157 31890 ft 581 kts 161°
2026-05-08 02:00 -33.12518 -56.55605 31140 ft 572 kts 161°
2026-05-08 02:01 -33.16254 -56.54077 30723 ft 557 kts 161°
2026-05-08 02:01 -33.19843 -56.52608 30490 ft 537 kts 161°
2026-05-08 02:01 -33.23311 -56.51189 30284 ft 519 kts 161°
2026-05-08 02:01 -33.26629 -56.49830 30087 ft 501 kts 161°
2026-05-08 02:02 -33.29927 -56.48479 29811 ft 486 kts 161°
2026-05-08 02:02 -33.33098 -56.47178 29320 ft 483 kts 161°
2026-05-08 02:02 -33.36275 -56.45874 28896 ft 478 kts 161°
2026-05-08 02:02 -33.39354 -56.44609 28471 ft 475 kts 161°
2026-05-08 02:03 -33.42464 -56.43331 28060 ft 471 kts 161°
2026-05-08 02:03 -33.45516 -56.42076 27665 ft 467 kts 161°
2026-05-08 02:03 -33.48587 -56.40813 27239 ft 464 kts 161°
2026-05-08 02:03 -33.51629 -56.39559 26853 ft 460 kts 161°
2026-05-08 02:04 -33.54668 -56.38305 26460 ft 456 kts 161°
2026-05-08 02:04 -33.57656 -56.37070 26079 ft 452 kts 161°
2026-05-08 02:04 -33.60614 -56.35848 25788 ft 446 kts 161°
2026-05-08 02:04 -33.63518 -56.34648 25641 ft 435 kts 161°
2026-05-08 02:05 -33.66355 -56.33476 25402 ft 422 kts 161°
2026-05-08 02:05 -33.69127 -56.32329 25083 ft 415 kts 161°
2026-05-08 02:05 -33.71759 -56.31240 24771 ft 412 kts 161°
2026-05-08 02:05 -33.74472 -56.30115 24435 ft 409 kts 161°
2026-05-08 02:06 -33.77151 -56.29003 24111 ft 406 kts 162°
2026-05-08 02:06 -33.79836 -56.27888 23798 ft 403 kts 162°
2026-05-08 02:06 -33.82478 -56.26792 23468 ft 401 kts 162°
2026-05-08 02:06 -33.85102 -56.25702 23135 ft 398 kts 162°
2026-05-08 02:07 -33.87707 -56.24619 22790 ft 394 kts 162°
2026-05-08 02:07 -33.90298 -56.23542 22483 ft 390 kts 162°
2026-05-08 02:07 -33.92836 -56.22487 22140 ft 386 kts 162°
2026-05-08 02:07 -33.95372 -56.21433 21817 ft 382 kts 162°
2026-05-08 02:08 -33.97876 -56.20393 21492 ft 378 kts 162°
2026-05-08 02:08 -34.00352 -56.19367 21163 ft 374 kts 162°
2026-05-08 02:08 -34.02768 -56.18357 20875 ft 370 kts 162°
2026-05-08 02:08 -34.05198 -56.17338 20546 ft 367 kts 162°
2026-05-08 02:09 -34.07622 -56.16322 20229 ft 363 kts 162°
2026-05-08 02:09 -34.09938 -56.15357 19938 ft 360 kts 162°
2026-05-08 02:09 -34.12297 -56.14370 19616 ft 357 kts 162°
2026-05-08 02:09 -34.14686 -56.13369 19182 ft 359 kts 162°
2026-05-08 02:10 -34.17005 -56.12398 18751 ft 360 kts 162°
2026-05-08 02:10 -34.19394 -56.11400 18338 ft 361 kts 162°
2026-05-08 02:10 -34.21753 -56.10414 17914 ft 356 kts 161°
2026-05-08 02:10 -34.24092 -56.09433 17433 ft 350 kts 161°
2026-05-08 02:11 -34.26393 -56.08466 16958 ft 345 kts 161°
2026-05-08 02:11 -34.28630 -56.07527 16488 ft 339 kts 161°
2026-05-08 02:11 -34.30856 -56.06592 16029 ft 334 kts 161°
2026-05-08 02:11 -34.33005 -56.05690 15533 ft 331 kts 161°
2026-05-08 02:12 -34.35195 -56.04769 14959 ft 328 kts 161°
2026-05-08 02:12 -34.37342 -56.03866 14402 ft 325 kts 161°
2026-05-08 02:12 -34.39457 -56.02976 13858 ft 322 kts 161°
2026-05-08 02:12 -34.41539 -56.02099 13319 ft 319 kts 161°
2026-05-08 02:13 -34.43653 -56.01209 12710 ft 315 kts 161°
2026-05-08 02:13 -34.45706 -56.00345 12150 ft 310 kts 161°
2026-05-08 02:13 -34.47729 -55.99493 11623 ft 304 kts 161°
2026-05-08 02:13 -34.49693 -55.98664 11095 ft 300 kts 161°
2026-05-08 02:14 -34.51635 -55.97844 10583 ft 294 kts 160°
2026-05-08 02:14 -34.53556 -55.97033 10076 ft 289 kts 160°
2026-05-08 02:14 -34.55448 -55.96233 9569 ft 284 kts 160°
2026-05-08 02:14 -34.57295 -55.95451 8999 ft 281 kts 161°
2026-05-08 02:15 -34.59135 -55.94668 8412 ft 278 kts 161°
2026-05-08 02:15 -34.60947 -55.93895 7830 ft 275 kts 162°
2026-05-08 02:15 -34.62746 -55.93129 7293 ft 271 kts 163°
2026-05-08 02:15 -34.64488 -55.92321 6773 ft 268 kts 156°
2026-05-08 02:16 -34.66072 -55.91138 6291 ft 267 kts 145°
2026-05-08 02:16 -34.67532 -55.89777 5783 ft 263 kts 146°
2026-05-08 02:16 -34.68941 -55.88499 5712 ft 236 kts 147°
2026-05-08 02:16 -34.70204 -55.87362 5497 ft 217 kts 148°
2026-05-08 02:17 -34.71403 -55.86341 5037 ft 211 kts 158°
2026-05-08 02:17 -34.72778 -55.86013 4502 ft 198 kts 193°
2026-05-08 02:17 -34.73953 -55.86678 3906 ft 189 kts 228°
2026-05-08 02:17 -34.74721 -55.87970 3327 ft 186 kts 239°
2026-05-08 02:18 -34.75438 -55.89250 2864 ft 180 kts 237°
2026-05-08 02:18 -34.76155 -55.90453 2461 ft 171 kts 237°
2026-05-08 02:18 -34.76826 -55.91558 2156 ft 153 kts 237°
2026-05-08 02:18 -34.77426 -55.92543 1935 ft 136 kts 238°
2026-05-08 02:19 -34.77965 -55.93433 1759 ft 129 kts 238°
2026-05-08 02:19 -34.78503 -55.94317 1573 ft 129 kts 238°
2026-05-08 02:19 -34.79039 -55.95197 1409 ft 128 kts 238°
2026-05-08 02:19 -34.79564 -55.96061 1239 ft 128 kts 238°
2026-05-08 02:20 -34.80094 -55.96935 1056 ft 130 kts 236°
2026-05-08 02:20 -34.80634 -55.97818 851 ft 129 kts 238°
2026-05-08 02:20 -34.81184 -55.98727 685 ft 135 kts 237°
2026-05-08 02:20 -34.81724 -55.99609 457 ft 130 kts 238°
2026-05-08 02:21 -34.82263 -56.00492 327 ft 133 kts 238°
2026-05-08 02:21 -34.82818 -56.01389 125 ft 131 kts 238°
2026-05-08 02:21 -34.83312 -56.02242 83 ft 110 kts 236°
2026-05-08 02:21 -34.83673 -56.02817 83 ft 41 kts 233°
2026-05-08 02:22 -34.83711 -56.02851 83 ft 4 kts 183°
2026-05-08 02:22 -34.83774 -56.02849 84 ft 12 kts 178°
2026-05-08 02:22 -34.83861 -56.02847 84 ft 6 kts 178°
2026-05-08 02:22 -34.83874 -56.02845 86 ft 4 kts 169°
2026-05-08 02:23 -34.83912 -56.02827 84 ft 8 kts 154°
2026-05-08 02:23 -34.83968 -56.02778 83 ft 11 kts 122°
2026-05-08 02:23 -34.83957 -56.02680 86 ft 14 kts 70°
2026-05-08 02:23 -34.83946 -56.02553 82 ft 8 kts 90°
2026-05-08 02:24 -34.83946 -56.02538 82 ft 3 kts 90°
2026-05-08 02:24 -34.83947 -56.02495 82 ft 7 kts 90°
2026-05-08 02:24 -34.83947 -56.02415 82 ft 11 kts 90°
2026-05-08 02:24 -34.83947 -56.02320 82 ft 12 kts 89°
2026-05-08 02:25 -34.83899 -56.02246 83 ft 13 kts 13°
2026-05-08 02:25 -34.83840 -56.02240 83 ft 8 kts
2026-05-08 02:25 -34.83816 -56.02238 86 ft 5 kts
2026-05-08 02:25 -34.83773 -56.02219 85 ft 9 kts 41°
2026-05-08 02:26 -34.83728 -56.02148 85 ft 13 kts 53°
2026-05-08 02:26 -34.83689 -56.02085 82 ft 15 kts 52°
2026-05-08 02:26 -34.83644 -56.02009 85 ft 0 kts 53°
2026-05-08 02:26 -34.83635 -56.01995 83 ft 4 kts 51°
2026-05-08 02:27 -34.83612 -56.01958 82 ft 5 kts 53°
2026-05-08 02:27 -34.83591 -56.01925 82 ft 3 kts 53°
2026-05-08 02:27 -34.83577 -56.01900 83 ft 3 kts 53°
2026-05-08 02:27 -34.83567 -56.01870 85 ft 5 kts 91°
2026-05-08 02:28 -34.83580 -56.01834 84 ft 5 kts 138°
2026-05-08 02:28 -34.83589 -56.01828 82 ft 3 kts 146°
2026-05-08 02:28 -34.83607 -56.01813 84 ft 4 kts 144°
2026-05-08 02:28 -34.83612 -56.01808 84 ft 0 kts 144°